MDT,Max TemperatureF,Mean TemperatureF,Min TemperatureF,Max Dew PointF,MeanDew PointF,Min DewpointF,Max Humidity, Mean Humidity, Min Humidity, Max Sea Level PressureIn, Mean Sea Level PressureIn, Min Sea Level PressureIn, Max VisibilityMiles, Mean VisibilityMiles, Min VisibilityMiles, Max Wind SpeedMPH, Mean Wind SpeedMPH, Max Gust SpeedMPH,PrecipitationIn, CloudCover, Events, WindDirDegrees
2013-3-1,64,47,30,11,7,2,41,23,9,30.33,30.23,30.15,10,10,10,22,8,24,0.00,0,,344
2013-3-2,66,47,28,14,11,9,44,25,12,30.41,30.27,30.09,10,10,10,12,6,18,0.00,0,,175
2013-3-3,82,56,30,18,7,-7,50,19,4,30.08,29.87,29.68,10,10,10,31,8,37,0.00,0,,231
2013-3-4,82,72,57,20,13,2,22,12,6,29.91,29.68,29.54,10,10,5,41,15,55,0.00,0,,277
2013-3-5,55,45,35,28,21,17,57,40,23,30.42,30.28,30.11,10,9,2,21,12,30,0.00,2,,144
2013-3-6,66,51,36,20,17,12,50,29,15,30.26,30.10,29.95,10,10,10,15,10,22,0.00,0,,152
2013-3-7,75,57,39,32,20,14,39,24,13,29.98,29.89,29.80,10,10,10,18,8,,0.00,0,,156
2013-3-8,80,68,55,42,37,31,53,36,17,29.98,29.75,29.63,10,10,5,24,9,40,0.00,3,,198
2013-3-9,64,55,46,37,23,12,43,29,14,29.84,29.71,29.59,10,10,8,34,19,48,0.00,1,,272
2013-3-10,54,44,34,22,14,9,46,31,18,30.14,30.06,29.88,10,10,10,20,9,31,0.00,2,,331
2013-3-11,73,52,30,18,13,9,47,24,9,30.11,29.99,29.86,10,10,10,24,8,28,0.00,0,,247
2013-3-12,68,52,37,27,20,13,38,28,17,30.27,30.09,29.86,10,10,10,22,11,32,0.00,0,,8
2013-3-13,73,55,37,23,20,19,48,29,13,30.33,30.23,30.10,10,10,10,17,10,25,0.00,0,,164
2013-3-14,82,60,37,25,17,11,48,24,7,30.21,30.10,30.02,10,10,8,10,4,,0.00,0,,161
2013-3-15,90,64,39,25,12,3,36,17,4,30.04,29.90,29.70,10,10,10,20,6,23,0.00,0,,241
2013-3-16,90,68,46,23,7,-8,27,11,4,29.76,29.64,29.54,10,10,10,24,10,32,0.00,0,,266
2013-3-17,84,64,45,36,24,9,60,28,7,29.79,29.66,29.53,10,10,5,36,12,45,0.00,0,,272
2013-3-18,80,67,54,13,6,-8,17,11,4,29.87,29.78,29.66,10,10,10,23,13,28,0.00,0,,258
2013-3-19,80,65,51,32,13,6,48,15,7,30.13,29.86,29.75,10,10,7,16,10,25,0.00,0,,1
2013-3-20,66,54,44,36,32,29,61,46,29,30.33,30.08,29.82,10,10,10,16,6,22,0.00,3,,116
2013-3-21,86,63,42,37,24,13,67,29,7,29.76,29.58,29.45,10,10,10,37,14,46,0.00,0,,248
2013-3-22,72,62,53,34,27,18,36,27,19,29.74,29.60,29.51,10,10,8,17,11,23,0.00,0,,243
2013-3-23,78,58,37,35,11,-28,70,23,4,30.06,29.73,29.53,10,8,2,38,17,51,0.00,3,,297
2013-3-24,52,39,26,4,3,3,25,18,14,30.23,30.09,29.95,10,10,10,20,10,23,0.00,0,,47
2013-3-25,54,40,28,9,7,4,39,26,16,30.33,30.21,30.06,10,10,9,13,7,18,0.00,0,,123
2013-3-26,66,48,30,14,10,4,32,22,12,30.29,30.15,29.98,10,10,10,18,11,25,0.00,0,,165
2013-3-27,81,57,34,35,20,14,46,26,9,30.02,29.94,29.85,10,10,10,14,6,,0.00,0,,167
2013-3-28,84,64,45,43,31,19,71,36,9,30.01,29.92,29.85,10,10,10,14,7,,0.00,0,,140
2013-3-29,84,64,45,50,34,21,83,42,10,29.99,29.92,29.85,10,10,7,15,5,23,0.00,0,,292
2013-3-30,84,64,45,26,17,9,44,19,6,29.97,29.88,29.79,10,10,10,17,6,,0.00,0,,306
2013-3-31,77,67,57,43,34,18,57,33,15,30.13,29.91,29.78,10,9,2,25,12,33,0.00,1,,297